Location: ???? ??
(36.0534°N, 43.5630°E)
Time: 05:26:53
(UTC+00:00)

Resurs 01 Rocket - Pass Details

Date: 18 September 2019
Orbit: 635 x 644 km, 98.0° (Epoch: 22 October)

Event Time Altitude Azimuth Distance (km) Brightness Sun altitude
Exits shadow 17:28:09 29° 3° (N) 1,168 3.1 -27.9°
Drops below altitude 10° 17:30:25 10° 354° (N) 2,041 4.5 -28.4°
Sets 17:32:39 0° 352° (N) 2,955 5.5 -28.8°
